Location: Briarstone Lake
(43.1454°N, 93.2359°W)
Time: 02:21:53
(UTC+00:00)

BlueWalker 3 - Pass Details

Date: 29 January 2026
Orbit: 450 x 461 km, 53.2° (Epoch: 7 February)

Event Time Altitude Azimuth Distance (km) Brightness Sun altitude
Rises 01:55:27 0° 303° (WNW) 2,458 6.3 -28.4°
Reaches altitude 10° 01:58:09 10° 325° (NW) 1,585 4.9 -28.8°
Enters shadow 01:58:14 10° 326° (NW) 1,560 4.8 -28.9°
